OBJECT D, 59776

Orbit data source: Space-Track

You're viewing an Uncataloged Satellite

Recently launched and/or uncataloged satellites may have evolving metadata. Metadata may include but not limited to: Owner, Maufacturer, Bus, Motor, and Mission.

OBJECT D, 59776 is a satellite owned by Sitronics (CIS) in SSO that was launched on Thu, 16 May 2024 UTC via a SOYUZ-2-1B launch vehicle from the Plesetsk Missile And Space Complex (PKMTR). Unknown objects in Earth's orbit typically refer to objects detected orbiting the Earth but have not yet been identified or cataloged. These objects could be anything from previously untracked satellites, spent rocket stages, debris from satellite collisions, or even natural meteoroids temporarily captured by Earth's gravity.

Loading next visibility...
Identifier
59776, 2024-092D
Orbit
SSO
Last TLE update
12 hours ago
Origin
Manufacturer
Sputniks
Mission
Operational spacecraft
Bus & Motor
CUBESAT 3U?, Unknown motor
Mass
3 kg wet, 3 kg dry
Launch date (UTC)
2024-05-16 (1 year ago)
Launch vehicle
SOYUZ-2-1B
Launch site
Plesetsk Missile And Space Complex (PKMTR)
Object type
Unknown
Shape & HBR
Unknown
Radar Cross Section
Small (<0.1 m²)

Expand to show TLE details & history

TLE from 12 hours ago
0 OBJECT D
1 59776U 24092D   25181.91363468  .00007948  00000-0  34241-3 0  9993
2 59776  97.6240 300.4164 0008362 311.7980  48.2540 15.22833569 62050
Epoch: 2025-06-30T21:55Z
TLE epoch observation values (Epoch: 2025-06-30T21:55:38.036Z)
Latitude
-0.00012°
Longitude
52.29132°
Altitude
496.56 km
Speed
7.618 km/s
True Right ascension
20h 01m 39s
True Declination
0° 00' 00"
Sunlit
Object was in full shadow at epoch
Visualization orbit readout
Latitude
-35.19411°
Longitude
58.20524°
Altitude
505.107 km
Speed
7.613 km/s
Apparent Right ascension
16h 25m 40s
Apparent Declination
-73° 54' 41"
Sunlit
Object is in full shadow
Visualization observer readout
Local Sidereal Time
22:01:44
Azimuth
200.043° SSW
Elevation
-36.468°
Doppler factor
1
Orbital elements
Apogee altitude
500.017 km
Perigee altitude
488.523 km
Semi-major axis
6,872.407 km
Eccentricity
0.00084
Inclination
97.624°
RAAN
300.4164°
Arg. of periapsis
311.798°
True anomaly
Unknown
Mean anomaly
48.254°
Eccentric anomaly
Unknown
Mean motion
3.8096 °/min
Orbital period
94.5 mins
BSTAR
0.00034241
Loading maneuver chart data...
Loading SW <> Apogee altitude chart data...
Loading historical data...
Loading historical data...
Loading historical data...
Loading historical data...
Loading historical data...
Loading historical data...
Loading historical data...

OBJECT D Visibility forecast

Observer location: undefined°, undefined°

Span
Click to sort rows by Start time (UTC) header in descending order
Start Az.
Max El. time (UTC)
Max El. Az.
Max El.
End time (UTC)
End Az.
6 mins2025-07-01 20:34:18.363Z23.489° NE2025-07-01 20:37:18.363Z112.699° SE39.96°2025-07-01 20:40:18.363Z178.906° S
4 mins2025-07-02 07:12:18.363Z105.125° ESE2025-07-02 07:14:18.363Z58.863° ENE20.495°2025-07-02 07:16:18.363Z22.183° NNE
|